Boulder City, NV

1:24 AM PDT on June 23, 2017 (GMT -0700)
Boulder City

Weather History for KBVU - December, 2012

Change the Weather History Date:

Saturday, December 8, 2012

  Actual Average (KLAS) Record (KLAS)
Temperature  
Mean Temperature 52 °F -  
Max Temperature 66 °F 57 °F 77 °F (1939)
Min Temperature 39 °F 36 °F 23 °F (1953)
Degree Days  
Heating Degree Days 12    
Growing Degree Days 2 (Base 50)    
Moisture  
Dew Point 23 °F    
Average Humidity 35    
Maximum Humidity 52    
Minimum Humidity 12    
Precipitation  
Precipitation 0.00 in - - ()
Sea Level Pressure  
Sea Level Pressure 29.95 in    
Wind  
Wind Speed 2 mph (NNE)    
Max Wind Speed 12 mph    
Max Gust Speed -    
Visibility 10 miles    
Events      
Averages and records for this station are not official NWS values.
T = Trace of Precipitation, MM = Missing Value Source: NWS Daily Summary

Daily Weather History Graph

Daily Weather History Graph

Search for Another Location

Airport or City:

Trip Planner

Search our weather history database for the weather conditions in past years. The results will help you decide how hot, cold, wet, or windy it might be!

Date:

Astronomy

Dec. 08, 2012 Rise Set
Actual Time 6:37 AM PST 4:25 PM PST
Civil Twilight 6:09 AM PST 4:53 PM PST
Nautical Twilight 5:37 AM PST 5:25 PM PST
Astronomical Twilight 5:06 AM PST 5:56 PM PST
Moon 1:15 AM PST (12/8) 12:50 PM PST (12/8)
Length of Visible Light 10h 44m
Length of Day
9h 47m
Waning Crescent, 27% of the Moon is Illuminated
Dec 8
Waning Crescent
Dec 13
New
Dec 19
First Quarter
Dec 28
Full
Jan 4
Last Quarter

Hourly Weather History & Observations

Time (PST) Temp. Windchill Dew Point Humidity Pressure Visibility Wind Dir Wind Speed Gust Speed Precip Events Conditions
12:15 AM 44.6 °F 43.1 °F 24.8 °F 46% 29.98 in 10.0 mi NNW 3.5 mph - N/A   Clear
12:35 AM 50.0 °F - 23.0 °F 35% 29.97 in 10.0 mi Calm Calm - N/A   Clear
12:55 AM 50.0 °F - 23.0 °F 35% 29.96 in 10.0 mi Calm Calm - N/A   Clear
1:15 AM 48.2 °F - 23.0 °F 37% 29.96 in 10.0 mi Calm Calm - N/A   Clear
1:35 AM 50.0 °F - 21.2 °F 32% 29.96 in 10.0 mi Calm Calm - N/A   Clear
1:55 AM 48.2 °F - 21.2 °F 34% 29.96 in 10.0 mi Calm Calm - N/A   Clear
2:15 AM 46.4 °F - 23.0 °F 40% 29.96 in 10.0 mi Calm Calm - N/A   Clear
2:35 AM 44.6 °F - 26.6 °F 49% 29.96 in 10.0 mi Calm Calm - N/A   Clear
3:15 AM 42.8 °F - 23.0 °F 46% 29.96 in 10.0 mi Calm Calm - N/A   Clear
3:35 AM 41.0 °F - 23.0 °F 49% 29.96 in 10.0 mi Calm Calm - N/A   Clear
3:55 AM 44.6 °F - 21.2 °F 39% 29.96 in 10.0 mi Calm Calm - N/A   Clear
4:15 AM 44.6 °F - 23.0 °F 43% 29.96 in 10.0 mi Calm Calm - N/A   Clear
4:35 AM 44.6 °F - 21.2 °F 39% 29.96 in 10.0 mi Calm Calm - N/A   Clear
4:55 AM 39.2 °F - 23.0 °F 52% 29.96 in 10.0 mi Calm Calm - N/A   Clear
5:15 AM 39.2 °F - 23.0 °F 52% 29.97 in 10.0 mi Calm Calm - N/A   Clear
5:35 AM 39.2 °F - 23.0 °F 52% 29.97 in 10.0 mi Calm Calm - N/A   Clear
5:55 AM 39.2 °F - 23.0 °F 52% 29.96 in 10.0 mi Calm Calm - N/A   Clear
6:15 AM 39.2 °F 37.0 °F 23.0 °F 52% 29.97 in 10.0 mi North 3.5 mph - N/A   Clear
6:35 AM 39.2 °F - 23.0 °F 52% 29.97 in 10.0 mi Calm Calm - N/A   Clear
6:55 AM 41.0 °F 39.0 °F 23.0 °F 49% 29.97 in 10.0 mi West 3.5 mph - N/A   Clear
7:15 AM 42.8 °F - 23.0 °F 46% 29.97 in 10.0 mi Calm Calm - N/A   Clear
7:35 AM 44.6 °F - 23.0 °F 43% 29.98 in 10.0 mi Calm Calm - N/A   Clear
7:55 AM 42.8 °F - 23.0 °F 46% 29.98 in 10.0 mi Calm Calm - N/A   Clear
8:15 AM 46.4 °F - 23.0 °F 40% 29.98 in 10.0 mi Calm Calm - N/A   Clear
8:35 AM 44.6 °F - 23.0 °F 43% 29.98 in 10.0 mi Calm Calm - N/A   Clear
8:55 AM 48.2 °F - 24.8 °F 40% 29.98 in 10.0 mi Calm Calm - N/A   Clear
9:15 AM 48.2 °F - 24.8 °F 40% 29.99 in 10.0 mi Calm Calm - N/A   Clear
9:35 AM 50.0 °F - 24.8 °F 37% 29.99 in 10.0 mi Calm Calm - N/A   Clear
9:55 AM 55.4 °F - 26.6 °F 33% 29.99 in 10.0 mi Calm Calm - N/A   Clear
10:15 AM 57.2 °F - 26.6 °F 31% 29.99 in 10.0 mi Calm Calm - N/A   Clear
10:35 AM 57.2 °F - 24.8 °F 29% 29.99 in 10.0 mi SSW 4.6 mph - N/A   Clear
10:55 AM 57.2 °F - 24.8 °F 29% 29.98 in 10.0 mi ENE 4.6 mph - N/A   Clear
11:15 AM 59.0 °F - 23.0 °F 25% 29.96 in 10.0 mi East 3.5 mph - N/A   Clear
11:35 AM 59.0 °F - 19.4 °F 22% 29.95 in 10.0 mi Calm Calm - N/A   Clear
11:55 AM 62.6 °F - 23.0 °F 22% 29.95 in 10.0 mi NNE 8.1 mph - N/A   Clear
12:15 PM 62.6 °F - 23.0 °F 22% 29.94 in 10.0 mi Calm Calm - N/A   Clear
12:35 PM 62.6 °F - 23.0 °F 22% 29.94 in 10.0 mi Calm Calm - N/A   Clear
12:55 PM 62.6 °F - 19.4 °F 19% 29.93 in 10.0 mi East 3.5 mph - N/A   Clear
1:15 PM 64.4 °F - 17.6 °F 16% 29.93 in 10.0 mi SSW 5.8 mph - N/A   Clear
1:35 PM 66.2 °F - 15.8 °F 14% 29.92 in 10.0 mi West 9.2 mph - N/A   Clear
1:55 PM 66.2 °F - 12.2 °F 12% 29.91 in 10.0 mi NNW 6.9 mph - N/A   Clear
2:15 PM 66.2 °F - 14.0 °F 13% 29.91 in 10.0 mi North 11.5 mph - N/A   Clear
2:35 PM 64.4 °F - 23.0 °F 21% 29.91 in 10.0 mi NNE 4.6 mph - N/A   Clear
2:55 PM 64.4 °F - 21.2 °F 19% 29.91 in 10.0 mi NE 6.9 mph - N/A   Clear
3:15 PM 64.4 °F - 19.4 °F 18% 29.91 in 10.0 mi ENE 5.8 mph - N/A   Clear
3:35 PM 62.6 °F - 24.8 °F 24% 29.91 in 10.0 mi NNE 6.9 mph - N/A   Clear
3:55 PM 60.8 °F - 24.8 °F 25% 29.91 in 10.0 mi NNE 6.9 mph - N/A   Clear
4:15 PM 59.0 °F - 24.8 °F 27% 29.91 in 10.0 mi NE 6.9 mph - N/A   Clear
4:35 PM 57.2 °F - 24.8 °F 29% 29.91 in 10.0 mi NNE 8.1 mph - N/A   Clear
4:55 PM 55.4 °F - 23.0 °F 29% 29.91 in 10.0 mi NE 8.1 mph - N/A   Clear
5:15 PM 55.4 °F - 23.0 °F 29% 29.91 in 10.0 mi NE 6.9 mph - N/A   Clear
5:55 PM 53.6 °F - 24.8 °F 33% 29.92 in 10.0 mi NE 5.8 mph - N/A   Clear
6:15 PM 50.0 °F - 23.0 °F 35% 29.92 in 10.0 mi NE 5.8 mph - N/A   Clear
6:35 PM 51.8 °F - 23.0 °F 33% 29.92 in 10.0 mi NE 4.6 mph - N/A   Clear
6:55 PM 51.8 °F - 23.0 °F 33% 29.92 in 10.0 mi NE 4.6 mph - N/A   Clear
7:15 PM 53.6 °F - 23.0 °F 30% 29.92 in 10.0 mi ENE 5.8 mph - N/A   Clear
7:35 PM 51.8 °F - 24.8 °F 35% 29.93 in 10.0 mi ENE 3.5 mph - N/A   Clear
7:55 PM 50.0 °F - 26.6 °F 40% 29.93 in 10.0 mi East 3.5 mph - N/A   Clear
8:35 PM 48.2 °F - 24.8 °F 40% 29.94 in 10.0 mi NNE 4.6 mph - N/A   Clear
8:55 PM 48.2 °F - 24.8 °F 40% 29.94 in 10.0 mi Calm Calm - N/A   Clear
9:15 PM 46.4 °F - 23.0 °F 40% 29.94 in 10.0 mi Calm Calm - N/A   Clear
9:35 PM 48.2 °F - 21.2 °F 34% 29.94 in 10.0 mi West 3.5 mph - N/A   Clear
9:55 PM 48.2 °F - 23.0 °F 37% 29.94 in 10.0 mi Calm Calm - N/A   Clear
10:15 PM 48.2 °F - 23.0 °F 37% 29.94 in 10.0 mi Calm Calm - N/A   Clear
10:35 PM 44.6 °F - 24.8 °F 46% 29.94 in 10.0 mi Calm Calm - N/A   Clear
10:55 PM 44.6 °F 43.1 °F 21.2 °F 39% 29.95 in 10.0 mi NNW 3.5 mph - N/A   Clear
11:15 PM 44.6 °F - 19.4 °F 37% 29.95 in 10.0 mi Calm Calm - N/A   Clear
11:35 PM 48.2 °F - 21.2 °F 34% 29.95 in 10.0 mi Calm Calm - N/A   Clear
11:55 PM 48.2 °F - 19.4 °F 32% 29.95 in 10.0 mi Calm Calm - N/A   Clear